Parker Ford, PA

6:03 AM EDT on September 26, 2016 (GMT -0400)
Pottstown Limerick

Weather History for KPTW - December, 2012

Change the Weather History Date:

Wednesday, December 19, 2012

  Actual Average (KRDG) Record (KRDG)
Temperature  
Mean Temperature 40 °F 33 °F  
Max Temperature 48 °F 41 °F 62 °F (1928)
Min Temperature 32 °F 25 °F 4 °F (1989)
Degree Days  
Heating Degree Days 25 32  
Month to date heating degree days 562  
Since 1 July heating degree days 1629  
Cooling Degree Days 0 0  
Month to date cooling degree days 0  
Year to date cooling degree days 896  
Moisture  
Dew Point 30 °F    
Average Humidity 66    
Maximum Humidity 82    
Minimum Humidity 52    
Precipitation  
Precipitation 0.00 in 0.10 in 1.78 in (1977)
Month to date precipitation 2.11  
Year to date precipitation 42.09  
Sea Level Pressure  
Sea Level Pressure 29.93 in    
Wind  
Wind Speed 7 mph (WNW)    
Max Wind Speed 15 mph    
Max Gust Speed 24 mph    
Visibility 10 miles    
Events      
T = Trace of Precipitation, MM = Missing Value Source: NWS Daily Summary

Daily Weather History Graph

Daily Weather History Graph

Search for Another Location

Airport or City:

Trip Planner

Search our weather history database for the weather conditions in past years. The results will help you decide how hot, cold, wet, or windy it might be!

Date:

Astronomy

Dec. 19, 2012 Rise Set
Actual Time 7:20 AM EST 4:38 PM EST
Civil Twilight 6:49 AM EST 5:09 PM EST
Nautical Twilight 6:15 AM EST 5:43 PM EST
Astronomical Twilight 5:42 AM EST 6:16 PM EST
Moon 11:27 AM EST (12/19) No Moon Set
Length of Visible Light 10h 19m
Length of Day
9h 18m
Waxing Crescent, 45% of the Moon is Illuminated
Dec 19
Waxing Crescent
Dec 20
First Quarter
Dec 28
Full
Jan 4
Last Quarter
Jan 11
New

Hourly Weather History & Observations

Time (EST) Temp. Windchill Dew Point Humidity Pressure Visibility Wind Dir Wind Speed Gust Speed Precip Events Conditions
12:54 AM 39.0 °F 32.8 °F 28.0 °F 65% 29.75 in 10.0 mi WNW 9.2 mph - N/A   Clear
1:54 AM 39.9 °F 35.8 °F 28.0 °F 63% 29.76 in 10.0 mi NW 5.8 mph - N/A   Clear
2:54 AM 39.9 °F 33.9 °F 28.0 °F 63% 29.76 in 10.0 mi WNW 9.2 mph - N/A   Clear
3:54 AM 37.9 °F 34.4 °F 28.9 °F 70% 29.77 in 10.0 mi WNW 4.6 mph - N/A   Partly Cloudy
4:54 AM 36.0 °F 32.1 °F 28.9 °F 76% 29.78 in 10.0 mi WNW 4.6 mph - N/A   Mostly Cloudy
5:54 AM 37.0 °F 31.6 °F 30.0 °F 76% 29.79 in 10.0 mi West 6.9 mph - N/A   Clear
6:54 AM 37.9 °F 30.9 °F 30.0 °F 73% 29.83 in 10.0 mi WNW 10.4 mph 19.6 mph N/A   Clear
7:54 AM 37.0 °F 34.5 °F 30.0 °F 76% 29.85 in 10.0 mi WNW 3.5 mph - N/A   Clear
8:54 AM 41.0 °F 39.0 °F 32.0 °F 70% 29.88 in 10.0 mi WNW 3.5 mph - N/A   Clear
9:54 AM 44.1 °F 39.0 °F 32.0 °F 63% 29.89 in 10.0 mi NW 9.2 mph 16.1 mph N/A   Clear
10:54 AM 45.0 °F 39.3 °F 30.9 °F 58% 29.89 in 10.0 mi WNW 11.5 mph 21.9 mph N/A   Clear
11:54 AM 46.9 °F - 32.0 °F 56% 29.89 in 10.0 mi WNW 15.0 mph 21.9 mph N/A   Scattered Clouds
12:54 PM 48.0 °F - 30.9 °F 52% 29.89 in 10.0 mi NW 11.5 mph 24.2 mph N/A   Scattered Clouds
1:54 PM 46.9 °F - 30.9 °F 54% 29.89 in 10.0 mi WNW 15.0 mph 20.7 mph N/A   Partly Cloudy
2:54 PM 46.0 °F 42.5 °F 30.9 °F 56% 29.95 in 10.0 mi WNW 6.9 mph - N/A   Mostly Cloudy
3:54 PM 44.1 °F 38.1 °F 30.0 °F 58% 29.97 in 10.0 mi WNW 11.5 mph 18.4 mph N/A   Scattered Clouds
4:54 PM 44.1 °F 39.0 °F 30.9 °F 60% 30.01 in 10.0 mi WNW 9.2 mph - N/A   Overcast
5:54 PM 43.0 °F 40.3 °F 30.0 °F 60% 30.04 in 10.0 mi WNW 4.6 mph - N/A   Mostly Cloudy
6:54 PM 42.1 °F 39.2 °F 30.0 °F 62% 30.08 in 10.0 mi NW 4.6 mph - N/A   Scattered Clouds
7:54 PM 39.0 °F - 28.9 °F 67% 30.11 in 10.0 mi Calm Calm - N/A   Clear
8:54 PM 37.0 °F 34.5 °F 28.0 °F 70% 30.12 in 10.0 mi NW 3.5 mph - N/A   Clear
9:54 PM 37.0 °F 34.5 °F 28.0 °F 70% 30.14 in 10.0 mi NW 3.5 mph - N/A   Clear
10:54 PM 32.0 °F 28.7 °F 27.0 °F 82% 30.17 in 10.0 mi NNW 3.5 mph - N/A   Clear
11:54 PM 32.0 °F - 27.0 °F 82% 30.17 in 10.0 mi Calm Calm - N/A   Clear